Time,TemperatureF,DewpointF,PressureIn,WindDirection,WindDirectionDegrees,WindSpeedMPH,WindSpeedGustMPH,Humidity,HourlyPrecipIn,Conditions,Clouds,dailyrainin,SoftwareType,DateUTC
2013-01-16 03:20:00,50.1,43.5,29.61,SSE,166,6.0,17.0,78,0.02,RA,,0.04,WeatherDisplay:10.37,2013-01-16 02:20:00,
2013-01-16 03:30:00,48.3,44.9,29.59,SSE,167,5.0,15.0,88,0.06,RA,,0.10,WeatherDisplay:10.37,2013-01-16 02:30:00,
2013-01-16 03:40:00,47.8,44.1,29.58,SE,125,6.0,14.0,87,0.02,RA,,0.12,WeatherDisplay:10.37,2013-01-16 02:40:00,
2013-01-16 03:50:00,47.6,44.2,29.58,SSE,154,6.0,17.0,88,0.05,RA,,0.17,WeatherDisplay:10.37,2013-01-16 02:50:00,
2013-01-16 04:00:00,47.3,44.5,29.56,SSW,213,6.0,16.0,90,0.02,RA,,0.18,WeatherDisplay:10.37,2013-01-16 03:00:00,
2013-01-16 04:10:00,46.5,43.4,29.57,SSW,213,5.0,20.0,89,0.02,RA,,0.20,WeatherDisplay:10.37,2013-01-16 03:10:00,
2013-01-16 04:20:00,46.3,43.5,29.57,SSW,202,3.0,10.0,90,0.02,RA,,0.21,WeatherDisplay:10.37,2013-01-16 03:20:00,
2013-01-16 04:30:00,46.5,44.3,29.57,SSW,202,8.0,18.0,92,0.02,RA,,0.23,WeatherDisplay:10.37,2013-01-16 03:30:00,
2013-01-16 04:40:00,46.4,43.3,29.57,WSW,238,7.0,15.0,89,0.01,RA,,0.24,WeatherDisplay:10.37,2013-01-16 03:40:00,
2013-01-16 04:50:00,47.0,42.4,29.58,WSW,242,7.0,22.0,84,0.00,CLR,,0.24,WeatherDisplay:10.37,2013-01-16 03:50:00,
2013-01-16 05:00:00,47.3,42.4,29.58,WSW,241,3.0,17.0,83,0.00,CLR,,0.24,WeatherDisplay:10.37,2013-01-16 04:00:00,
2013-01-16 05:10:00,47.4,42.2,29.58,WSW,247,8.0,17.0,82,0.00,CLR,,0.24,WeatherDisplay:10.37,2013-01-16 04:10:00,
2013-01-16 05:20:00,47.6,41.1,29.58,SW,236,6.0,13.0,78,0.00,CLR,,0.24,WeatherDisplay:10.37,2013-01-16 04:20:00,
2013-01-16 05:30:00,47.5,40.3,29.59,WSW,241,6.0,14.0,76,0.00,CLR,,0.24,WeatherDisplay:10.37,2013-01-16 04:30:00,
2013-01-16 05:40:00,47.6,39.7,29.59,WSW,239,5.0,16.0,74,0.00,CLR,,0.24,WeatherDisplay:10.37,2013-01-16 04:40:00,
2013-01-16 05:50:00,47.8,38.5,29.59,SW,235,6.0,17.0,70,0.00,CLR,,0.24,WeatherDisplay:10.37,2013-01-16 04:50:00,
2013-01-16 06:10:00,47.8,38.1,29.60,SW,235,6.0,13.0,69,0.00,CLR,,0.24,WeatherDisplay:10.37,2013-01-16 05:10:00,
2013-01-16 06:20:00,47.8,38.5,29.60,SW,225,6.0,10.0,70,0.00,CLR,,0.24,WeatherDisplay:10.37,2013-01-16 05:20:00,
2013-01-16 06:30:00,47.8,37.4,29.60,WSW,244,7.0,16.0,67,0.00,CLR,,0.24,WeatherDisplay:10.37,2013-01-16 05:30:00,
2013-01-16 06:40:00,47.6,36.8,29.60,WSW,238,5.0,16.0,66,0.00,CLR,,0.24,WeatherDisplay:10.37,2013-01-16 05:40:00,
2013-01-16 06:50:00,47.5,37.1,29.61,WSW,238,5.0,12.0,67,0.00,CLR,,0.24,WeatherDisplay:10.37,2013-01-16 05:50:00,
2013-01-16 07:00:00,47.6,36.0,29.61,WSW,243,7.0,14.0,64,0.00,CLR,,0.24,WeatherDisplay:10.37,2013-01-16 06:00:00,
2013-01-16 07:10:00,47.4,34.2,29.61,WSW,238,6.0,14.0,60,0.00,CLR,,0.24,WeatherDisplay:10.37,2013-01-16 06:10:00,
2013-01-16 07:20:00,47.4,34.2,29.61,SW,231,3.0,14.0,60,0.00,CLR,,0.24,WeatherDisplay:10.37,2013-01-16 06:20:00,
2013-01-16 07:30:00,46.1,36.9,29.62,WSW,241,6.0,17.0,70,0.01,RA,,0.24,WeatherDisplay:10.37,2013-01-16 06:30:00,
2013-01-16 07:40:00,44.8,37.7,29.61,SW,224,2.0,8.0,76,0.00,CLR,,0.24,WeatherDisplay:10.37,2013-01-16 06:40:00,
2013-01-16 07:50:00,44.8,38.1,29.62,South,185,2.0,6.0,77,0.00,CLR,,0.24,WeatherDisplay:10.37,2013-01-16 06:50:00,
2013-01-16 08:00:00,45.5,38.0,29.62,SW,225,2.0,8.0,75,0.00,CLR,,0.24,WeatherDisplay:10.37,2013-01-16 07:00:00,
2013-01-16 08:10:00,46.3,37.4,29.61,SW,220,3.0,12.0,71,0.00,CLR,,0.24,WeatherDisplay:10.37,2013-01-16 07:10:00,
2013-01-16 08:20:00,47.0,37.0,29.62,SW,225,5.0,14.0,68,0.00,CLR,,0.24,WeatherDisplay:10.37,2013-01-16 07:20:00,
2013-01-16 08:30:00,46.1,37.2,29.62,SW,228,3.0,12.0,71,0.00,CLR,,0.24,WeatherDisplay:10.37,2013-01-16 07:30:00,
2013-01-16 08:40:00,46.3,37.1,29.61,SW,217,6.0,13.0,70,0.00,CLR,,0.24,WeatherDisplay:10.37,2013-01-16 07:40:00,
2013-01-16 08:50:00,46.9,37.6,29.61,SSW,210,7.0,13.0,70,0.00,CLR,,0.24,WeatherDisplay:10.37,2013-01-16 07:50:00,
2013-01-16 09:00:00,47.2,37.9,29.61,SSW,211,3.0,15.0,70,0.00,CLR,,0.24,WeatherDisplay:10.37,2013-01-16 08:00:00,
2013-01-16 09:10:00,47.1,37.4,29.61,SSW,196,3.0,12.0,69,0.00,CLR,,0.24,WeatherDisplay:10.37,2013-01-16 08:10:00,
2013-01-16 09:20:00,46.9,36.9,29.61,SSW,202,2.0,10.0,68,0.00,CLR,,0.24,WeatherDisplay:10.37,2013-01-16 08:20:00,
2013-01-16 09:30:00,47.2,37.2,29.61,SSW,206,3.0,10.0,68,0.00,CLR,,0.24,WeatherDisplay:10.37,2013-01-16 08:30:00,
2013-01-16 09:40:00,47.7,37.7,29.61,SSW,206,5.0,12.0,68,0.00,CLR,,0.24,WeatherDisplay:10.37,2013-01-16 08:40:00,
2013-01-16 09:50:00,47.7,36.9,29.60,South,189,6.0,12.0,66,0.00,CLR,,0.24,WeatherDisplay:10.37,2013-01-16 08:50:00,
2013-01-16 10:00:00,47.7,36.9,29.60,SSW,199,3.0,7.0,66,0.00,CLR,,0.24,WeatherDisplay:10.37,2013-01-16 09:00:00,
2013-01-16 10:10:00,47.6,37.2,29.60,SSW,201,2.0,12.0,67,0.00,CLR,,0.24,WeatherDisplay:10.37,2013-01-16 09:10:00,
2013-01-16 10:20:00,47.8,37.7,29.59,SSW,208,2.0,13.0,68,0.00,CLR,,0.24,WeatherDisplay:10.37,2013-01-16 09:20:00,
2013-01-16 10:30:00,47.8,36.2,29.59,SW,227,3.0,15.0,64,0.00,CLR,,0.24,WeatherDisplay:10.37,2013-01-16 09:30:00,
2013-01-16 10:40:00,47.8,35.0,29.59,SW,220,3.0,13.0,61,0.00,CLR,,0.24,WeatherDisplay:10.37,2013-01-16 09:40:00,
2013-01-16 10:50:00,47.7,35.3,29.59,SSW,198,5.0,15.0,62,0.00,CLR,,0.24,WeatherDisplay:10.37,2013-01-16 09:50:00,
2013-01-16 11:00:00,47.6,36.4,29.59,SSW,209,5.0,13.0,65,0.01,RA,,0.25,WeatherDisplay:10.37,2013-01-16 10:00:00,
2013-01-16 11:10:00,45.5,36.2,29.60,SW,227,7.0,20.0,70,0.01,RA,,0.26,WeatherDisplay:10.37,2013-01-16 10:10:00,
2013-01-16 11:20:00,42.7,36.6,29.58,SW,224,2.0,8.0,79,0.02,RA,,0.28,WeatherDisplay:10.37,2013-01-16 10:20:00,
2013-01-16 11:30:00,43.7,37.6,29.59,SW,224,3.0,9.0,79,0.01,RA,,0.29,WeatherDisplay:10.37,2013-01-16 10:30:00,
2013-01-16 16:50:00,41.6,37.4,29.56,SW,215,1.0,3.0,85,0.00,CLR,,0.29,WeatherDisplay:10.37,2013-01-16 15:50:00,
2013-01-16 17:00:00,41.6,37.4,29.57,SW,215,0.0,3.0,85,0.00,CLR,,0.29,WeatherDisplay:10.37,2013-01-16 16:00:00,
2013-01-16 17:30:00,42.6,38.1,29.59,SW,221,1.0,10.0,84,0.02,RA,,0.31,WeatherDisplay:10.37,2013-01-16 16:30:00,
2013-01-16 17:40:00,42.0,37.8,29.59,WSW,250,3.0,12.0,85,0.05,RA,,0.36,WeatherDisplay:10.37,2013-01-16 16:40:00,
2013-01-16 17:50:00,41.5,38.0,29.58,WSW,246,1.0,12.0,87,0.02,RA,,0.39,WeatherDisplay:10.37,2013-01-16 16:50:00,
2013-01-16 18:00:00,41.7,38.4,29.58,SSW,213,1.0,6.0,88,0.00,CLR,,0.39,WeatherDisplay:10.37,2013-01-16 17:00:00,
2013-01-16 18:10:00,41.8,38.8,29.58,SW,217,0.0,2.0,89,0.00,CLR,,0.39,WeatherDisplay:10.37,2013-01-16 17:10:00,
2013-01-16 18:20:00,41.7,38.7,29.58,SW,217,0.0,0.0,89,0.00,CLR,,0.39,WeatherDisplay:10.37,2013-01-16 17:20:00,
2013-01-16 18:30:00,41.5,38.8,29.58,SW,217,0.0,0.0,90,0.00,CLR,,0.39,WeatherDisplay:10.37,2013-01-16 17:30:00,
2013-01-16 18:40:00,41.4,38.4,29.59,SW,217,0.0,0.0,89,0.00,CLR,,0.39,WeatherDisplay:10.37,2013-01-16 17:40:00,
2013-01-16 18:50:00,41.5,38.8,29.59,SW,217,0.0,0.0,90,0.00,CLR,,0.39,WeatherDisplay:10.37,2013-01-16 17:50:00,
2013-01-16 19:00:00,41.7,39.0,29.59,SW,217,0.0,0.0,90,0.00,CLR,,0.39,WeatherDisplay:10.37,2013-01-16 18:00:00,
2013-01-16 19:10:00,41.9,39.2,29.59,SW,217,0.0,1.0,90,0.00,CLR,,0.39,WeatherDisplay:10.37,2013-01-16 18:10:00,
2013-01-16 19:20:00,42.1,39.1,29.59,South,182,0.0,2.0,89,0.01,RA,,0.39,WeatherDisplay:10.37,2013-01-16 18:20:00,
2013-01-16 19:30:00,42.5,39.5,29.59,SSE,148,0.0,1.0,89,0.00,CLR,,0.39,WeatherDisplay:10.37,2013-01-16 18:30:00,
2013-01-16 19:40:00,42.7,39.7,29.60,SSE,148,0.0,1.0,89,0.00,CLR,,0.39,WeatherDisplay:10.37,2013-01-16 18:40:00,
2013-01-16 19:50:00,43.0,40.0,29.60,SSE,148,0.0,1.0,89,0.00,CLR,,0.39,WeatherDisplay:10.37,2013-01-16 18:50:00,
2013-01-16 20:00:00,43.4,40.7,29.60,SSE,148,0.0,1.0,90,0.00,CLR,,0.39,WeatherDisplay:10.37,2013-01-16 19:00:00,
2013-01-16 20:10:00,43.7,40.7,29.60,SSE,165,0.0,3.0,89,0.00,CLR,,0.39,WeatherDisplay:10.37,2013-01-16 19:10:00,
2013-01-16 20:20:00,43.8,40.8,29.60,ENE,69,0.0,1.0,89,0.00,CLR,,0.39,WeatherDisplay:10.37,2013-01-16 19:20:00,
2013-01-16 20:30:00,43.9,40.9,29.60,ENE,69,0.0,1.0,89,0.00,CLR,,0.39,WeatherDisplay:10.37,2013-01-16 19:30:00,
2013-01-16 20:40:00,44.0,41.0,29.60,ENE,69,0.0,1.0,89,0.00,CLR,,0.39,WeatherDisplay:10.37,2013-01-16 19:40:00,
2013-01-16 20:50:00,44.0,41.0,29.60,ENE,69,0.0,0.0,89,0.00,CLR,,0.39,WeatherDisplay:10.37,2013-01-16 19:50:00,
2013-01-16 21:00:00,44.1,41.0,29.59,ENE,69,0.0,1.0,89,0.00,CLR,,0.39,WeatherDisplay:10.37,2013-01-16 20:00:00,
2013-01-16 21:10:00,44.3,41.2,29.59,NW,316,0.0,3.0,89,0.00,CLR,,0.39,WeatherDisplay:10.37,2013-01-16 20:10:00,
2013-01-16 21:20:00,44.3,41.3,29.59,NW,313,0.0,3.0,89,0.00,CLR,,0.39,WeatherDisplay:10.37,2013-01-16 20:20:00,
2013-01-16 21:30:00,44.5,41.2,29.58,NW,313,0.0,1.0,88,0.00,CLR,,0.39,WeatherDisplay:10.37,2013-01-16 20:30:00,
2013-01-16 21:40:00,44.5,41.2,29.59,WNW,287,0.0,2.0,88,0.00,CLR,,0.39,WeatherDisplay:10.37,2013-01-16 20:40:00,
2013-01-16 21:50:00,44.7,41.4,29.58,SSW,198,0.0,2.0,88,0.00,CLR,,0.39,WeatherDisplay:10.37,2013-01-16 20:50:00,
2013-01-16 22:00:00,44.8,41.2,29.58,SSW,198,0.0,2.0,87,0.00,CLR,,0.39,WeatherDisplay:10.37,2013-01-16 21:00:00,
2013-01-16 22:10:00,45.0,41.4,29.58,SSW,198,0.0,1.0,87,0.00,CLR,,0.39,WeatherDisplay:10.37,2013-01-16 21:10:00,
2013-01-16 22:20:00,45.2,40.4,29.58,South,188,1.0,6.0,83,0.00,CLR,,0.39,WeatherDisplay:10.37,2013-01-16 21:20:00,
2013-01-16 22:30:00,45.5,40.0,29.58,SSW,213,2.0,8.0,81,0.00,CLR,,0.39,WeatherDisplay:10.37,2013-01-16 21:30:00,
2013-01-16 22:40:00,45.4,40.5,29.58,SW,234,1.0,7.0,83,0.01,RA,,0.40,WeatherDisplay:10.37,2013-01-16 21:40:00,
2013-01-16 22:50:00,45.0,40.8,29.58,SSW,210,1.0,3.0,85,0.00,CLR,,0.40,WeatherDisplay:10.37,2013-01-16 21:50:00,
2013-01-16 23:00:00,44.7,41.1,29.58,SSW,209,0.0,1.0,87,0.00,CLR,,0.40,WeatherDisplay:10.37,2013-01-16 22:00:00,
2013-01-16 23:10:00,44.7,41.3,29.58,SSW,209,0.0,0.0,88,0.00,CLR,,0.40,WeatherDisplay:10.37,2013-01-16 22:10:00,
2013-01-16 23:20:00,44.7,41.4,29.58,South,188,1.0,3.0,88,0.01,RA,,0.41,WeatherDisplay:10.37,2013-01-16 22:20:00,
2013-01-16 23:30:00,44.8,41.5,29.58,South,176,1.0,4.0,88,0.02,RA,,0.43,WeatherDisplay:10.37,2013-01-16 22:30:00,
2013-01-16 23:40:00,44.8,41.4,29.57,SSE,168,1.0,4.0,88,0.02,RA,,0.44,WeatherDisplay:10.37,2013-01-16 22:40:00,
2013-01-16 23:50:00,44.8,41.8,29.57,South,181,0.0,3.0,89,0.00,,,0.44,WeatherDisplay:10.37,2013-01-16 22:50:00,